Location: ??????
(38.1303°N, 24.0039°E)
Time: 18:03:44
(UTC+00:00)

ADEOS II - Pass Details

Date: 20 June 2021
Orbit: 800 x 800 km, 98.6° (Epoch: 28 July)

Event Time Altitude Azimuth Distance (km) Brightness Sun altitude
Rises 01:26:51 0° 1° (N) 3,316 6.1 -15.2°
Reaches altitude 10° 01:29:25 10° 351° (N) 2,382 5.1 -14.8°
Maximum altitude 01:33:56 30° 292° (WNW) 1,411 3.2 -14.2°
Enters shadow 01:36:49 18° 245° (WSW) 1,869 3.4 -13.8°
